Location: Cisewo
(53.3833°N, 14.9000°E)
Time: 10:48:21
(UTC+00:00)

Cosmos 1544 - Pass Details

Date: 18 April 2021
Orbit: 469 x 489 km, 82.5° (Epoch: 14 May)

Event Time Altitude Azimuth Distance (km) Brightness Sun altitude
Rises 23:41:27 0° 353° (N) 2,533 7.9 -24.8°
Reaches altitude 10° 23:43:37 10° 359° (N) 1,648 6.8 -24.8°
Enters shadow 23:46:34 42° 45° (NE) 685 4.1 -24.7°
